This is the latest recevied weather packets stored in our database for station/object K5OBH. If no packets are shown the sender has not sent any weather packets the latest 10 day(s).
| Time | Temp. | Humidity | Pressure | Rain* | Wind** | Luminosity | Snow |
|---|---|---|---|---|---|---|---|
| 1777417833 | 20° C | 64% | 1012.5 hPa | 0 mm | - | 196 W/m² | - |
| 1777417532 | 20° C | 63% | 1012.3 hPa | 0 mm | - | 209 W/m² | - |
| 1777417230 | 20° C | 65% | 1012.5 hPa | 0 mm | - | 224 W/m² | - |
| 1777416925 | 20° C | 66% | 1012.7 hPa | 0 mm | - | 238 W/m² | - |
| 1777416620 | 20° C | 65% | 1012.3 hPa | 0 mm | - | 252 W/m² | - |
| 1777416317 | 20° C | 65% | 1012.6 hPa | 0 mm | - | 267 W/m² | - |
| 1777416016 | 20° C | 65% | 1012.1 hPa | 0 mm | - | 281 W/m² | - |
| 1777415712 | 20° C | 66% | 1012.3 hPa | 0 mm | - | 296 W/m² | - |
| 1777415408 | 20° C | 65% | 1012.4 hPa | 0 mm | - | 313 W/m² | - |
| 1777415107 | 20° C | 65% | 1012.4 hPa | 0 mm | - | 326 W/m² | - |
| 1777414803 | 20° C | 66% | 1012.3 hPa | 0 mm | - | 338 W/m² | - |
| 1777414498 | 19.44° C | 66% | 1012.3 hPa | 0 mm | - | 354 W/m² | - |
| 1777414197 | 20° C | 66% | 1012.3 hPa | 0 mm | - | 369 W/m² | - |
| 1777413893 | 20° C | 68% | 1012.4 hPa | 0 mm | - | 383 W/m² | - |
| 1777413589 | 19.44° C | 66% | 1012.6 hPa | 0 mm | - | 392 W/m² | - |
| 1777413285 | 20° C | 66% | 1012.2 hPa | 0 mm | - | 424 W/m² | - |
| 1777412981 | 20° C | 67% | 1012.3 hPa | 0 mm | - | 301 W/m² | - |
| 1777412679 | 20° C | 67% | 1012.3 hPa | 0 mm | - | 481 W/m² | - |
| 1777412378 | 20° C | 67% | 1012.3 hPa | 0 mm | - | 461 W/m² | - |
| 1777412072 | 20° C | 67% | 1012.3 hPa | 0 mm | - | 466 W/m² | - |
| 1777411767 | 20° C | 66% | 1012.3 hPa | 0 mm | - | 512 W/m² | - |
| 1777411462 | 20.56° C | 66% | 1012.4 hPa | 0 mm | - | 549 W/m² | - |
| 1777411161 | 20° C | 68% | 1012.1 hPa | 0 mm | - | 551 W/m² | - |
| 1777410856 | 20° C | 67% | 1012.3 hPa | 0 mm | - | 557 W/m² | - |
| 1777410555 | 19.44° C | 67% | 1012.1 hPa | 0 mm | - | 577 W/m² | - |
* Rain latest hour (hover to see other rain measurements)
** Current wind speed in m/s (hover to see current wind gust speed)